Wind_Speed
38 37 37 37 37 37 37 37 37 38 39 38 37 37 37 37 37 36 36 36 36 35 36 37 38 38 39 40 41 41 41 41 40 41 41 43 43 43 44 45 46 46 44 44 43 43 43 43 44 47 49 48 47 46 46 45 42 41 40 39 37 35 34 34 34 34 33 32 32 32 32 32 32 31
39 38 38 39 39 39 39 39 39 39 40 40 39 39 38 38 38 38 39 40 41 40 39 40 40 41 42 43 44 44 44 44 43 43 45 46 47 46 46 46 46 47 48 49 49 49 48 46 45 47 50 52 51 50 49 48 47 46 44 43 42 40 39 38 38 37 37 36 35 35 35 35 35 34
40 40 40 40 40 40 41 41 40 40 41 42 43 43 43 42 41 42 42 44 46 45 44 44 43 44 45 46 48 49 50 50 49 48 49 50 50 50 49 49 49 49 49 51 53 54 54 54 53 51 51 53 55 55 54 52 50 49 49 48 47 45 44 43 41 40 40 39 39 38 38 38 37 37
41 41 41 41 41 41 42 43 42 42 42 43 45 46 47 47 47 47 47 48 50 50 49 49 48 48 48 50 52 53 54 55 55 54 54 54 54 53 52 52 52 52 52 52 53 55 56 57 60 60 57 55 56 57 57 56 55 53 53 52 51 49 48 47 46 45 43 43 42 41 41 41 40 39
43 43 43 43 43 44 45 46 46 47 47 47 47 48 49 50 51 53 53 53 54 54 54 54 53 52 51 53 55 56 57 58 58 57 57 57 57 56 56 56 56 57 56 56 55 56 56 58 60 62 62 62 61 60 59 59 59 59 58 57 55 54 52 51 51 49 48 47 45 43 43 43 43 42
44 45 45 46 47 48 48 49 50 51 52 53 53 54 54 54 54 55 57 57 58 59 60 59 57 54 52 52 55 56 57 59 60 60 60 61 61 61 61 61 62 62 61 61 59 58 58 60 61 61 62 64 65 66 66 65 64 63 62 61 60 58 56 55 55 53 52 51 49 47 46 45 45 44
47 47 48 50 51 51 51 51 51 52 54 55 57 58 58 58 58 58 59 59 60 62 64 63 61 58 56 56 56 57 57 58 60 60 61 62 63 64 64 64 65 66 66 65 64 63 62 62 63 62 62 63 65 68 70 71 70 68 66 65 64 62 60 58 57 57 55 55 53 52 50 50 49 48
50 51 52 53 53 52 51 51 51 52 53 54 55 56 57 57 58 59 60 60 61 62 64 65 63 61 62 62 61 60 59 59 60 60 61 62 63 64 65 66 67 67 68 68 67 67 66 65 65 65 65 65 66 67 69 72 74 74 72 69 67 66 65 62 60 59 59 58 58 56 55 54 53 52
53 53 54 54 53 53 53 53 53 54 55 55 56 56 56 56 57 58 59 59 60 60 62 63 64 65 67 67 65 63 62 62 62 62 63 64 65 65 66 67 68 70 70 70 69 69 69 69 69 68 68 68 68 69 69 71 73 76 77 76 73 71 70 68 66 64 62 62 61 60 59 58 57 56
55 55 55 54 54 55 55 55 56 56 56 57 57 58 58 58 58 58 59 59 59 60 61 63 67 69 70 69 68 67 66 65 65 66 67 68 68 69 70 71 71 72 73 74 73 72 72 72 72 71 71 70 71 72 72 73 73 75 78 80 80 77 75 73 72 71 68 66 65 64 63 62 61 60
56 55 55 54 54 55 55 55 56 56 57 57 58 59 59 59 59 60 60 61 61 62 64 66 69 70 71 71 71 72 72 71 70 71 72 72 73 74 75 76 76 76 76 76 76 76 75 75 74 74 73 73 73 74 75 76 76 76 77 79 82 83 82 79 78 77 75 72 70 68 67 66 65 64
55 55 54 54 55 55 56 56 57 57 58 59 60 61 62 62 62 63 63 64 65 65 66 68 69 71 73 74 75 77 78 78 78 78 78 79 80 80 80 80 80 79 79 78 78 78 77 77 77 76 76 76 76 76 76 77 78 78 78 79 80 83 85 85 84 83 81 79 76 73 70 69 69 68
56 57 58 58 59 60 60 60 61 62 62 64 65 66 66 66 66 67 68 69 70 70 70 71 73 74 76 79 81 82 83 85 85 85 85 85 85 85 84 83 82 81 80 80 80 79 79 78 78 78 78 78 78 78 78 78 79 80 81 81 81 82 84 87 88 87 86 84 81 78 75 73 72 71
58 59 59 60 61 62 62 62 63 63 64 65 66 67 68 68 69 69 70 71 72 73 73 74 76 77 79 82 83 85 86 87 87 87 87 86 85 84 83 82 82 80 79 80 80 80 79 79 78 78 79 79 80 80 79 79 79 81 82 83 83 83 84 86 88 89 89 87 85 82 80 78 75 74
58 58 59 60 61 62 62 63 63 64 65 65 65 66 66 66 66 66 67 67 68 69 70 72 73 75 77 78 80 81 82 82 82 83 83 82 81 79 78 78 79 79 77 76 77 78 78 77 76 76 77 78 78 79 79 79 79 80 81 83 84 84 85 85 87 88 90 90 89 87 84 82 80 78
58 59 60 61 62 63 63 64 64 64 64 64 64 64 63 63 62 62 62 62 62 63 64 65 67 68 69 70 72 73 73 73 74 75 76 76 75 75 74 73 75 75 74 73 73 75 76 76 75 75 75 75 75 76 76 77 77 77 78 80 82 84 85 85 86 87 89 90 91 90 88 86 84 82
59 60 62 62 63 63 62 62 62 62 62 61 61 60 60 59 59 58 58 57 58 59 60 60 62 63 63 63 65 65 65 65 66 67 68 68 68 69 69 68 69 70 71 70 70 71 73 74 73 73 73 73 74 74 74 74 75 75 75 77 79 81 83 84 85 86 88 90 91 92 91 90 88 85
62 63 63 63 62 62 61 61 60 59 59 58 58 57 56 56 55 54 53 53 53 53 54 54 55 56 56 57 58 59 58 58 59 60 60 61 62 62 62 62 63 64 65 65 65 66 68 69 67 68 70 71 72 72 72 73 73 73 74 75 77 78 80 82 83 85 86 88 90 92 92 92 91 89
65 65 64 64 63 63 62 61 60 59 58 57 56 55 54 53 52 51 50 49 48 47 47 48 48 49 50 51 53 55 55 54 55 56 56 58 59 58 57 58 59 60 61 61 59 60 62 63 61 61 64 66 67 69 70 71 72 72 73 74 74 76 77 79 81 83 84 86 88 90 92 93 93 92
67 65 64 64 63 62 61 59 58 56 56 55 54 53 51 49 48 48 46 45 45 44 44 45 46 47 47 48 50 52 53 54 54 54 55 56 57 55 55 57 58 59 60 59 57 56 58 59 57 57 59 60 61 63 65 67 69 70 71 72 73 74 76 77 78 80 82 84 86 88 90 92 93 94
66 64 62 61 60 58 57 55 54 52 51 50 50 49 48 46 45 45 44 43 43 43 44 45 46 46 47 48 48 49 50 52 52 52 52 52 51 51 52 54 55 56 57 57 55 54 55 57 56 56 57 57 58 59 61 62 63 65 67 69 71 73 74 76 77 78 80 82 84 86 88 91 93 93
63 61 59 57 56 54 52 51 49 48 47 46 46 46 45 43 43 43 43 43 43 43 44 44 44 45 45 45 45 45 46 47 48 48 48 47 45 45 47 49 49 51 52 52 50 48 50 52 53 53 54 54 56 57 58 58 59 60 62 65 67 70 72 74 75 77 78 80 82 84 86 88 90 92
60 57 55 53 52 50 48 47 45 44 43 43 43 43 43 42 42 42 42 42 42 41 41 41 40 40 40 40 40 40 40 40 41 41 41 40 37 37 38 39 40 42 43 43 41 41 43 46 46 47 47 48 50 52 55 57 58 59 60 61 63 65 67 70 72 74 76 78 80 82 84 86 88 90
57 55 52 50 49 47 45 43 42 41 41 40 40 41 41 41 40 40 40 39 39 38 37 36 35 34 34 34 34 34 34 34 34 34 33 31 28 27 27 28 29 32 33 32 31 32 34 37 39 40 41 42 44 46 49 52 55 57 59 60 61 62 64 66 68 71 73 76 78 80 82 84 85 87
56 53 51 49 46 44 43 41 40 40 39 39 39 39 39 39 38 37 36 35 34 34 33 32 31 30 29 28 28 27 27 27 28 28 28 26 24 22 22 22 23 26 26 24 23 24 26 28 31 33 35 36 38 41 44 46 50 54 57 59 61 62 63 64 65 67 70 73 75 77 79 81 83 85
55 52 50 47 45 43 41 40 39 39 38 38 37 37 36 35 33 32 31 30 30 29 28 28 26 24 23 22 21 20 20 19 20 20 21 21 20 20 21 21 23 24 24 22 20 21 22 23 24 26 28 30 32 36 39 41 44 48 50 53 56 58 61 62 63 65 67 69 72 74 76 78 80 82
54 51 48 45 43 41 40 39 38 37 37 36 34 33 31 30 29 28 27 26 26 26 25 23 21 19 17 16 16 16 16 17 17 17 17 17 17 17 18 19 21 22 23 23 22 21 20 20 20 21 23 24 27 29 32 34 37 39 41 45 49 52 56 59 61 63 65 67 69 71 73 75 77 79
52 49 46 42 40 39 38 37 36 35 34 32 30 28 27 26 25 24 24 24 23 23 21 19 16 14 13 13 14 15 16 17 17 18 18 18 18 18 18 19 20 21 21 22 22 22 21 20 19 19 20 22 23 24 25 27 29 31 32 36 40 45 49 53 56 59 63 66 68 69 71 72 73 75
48 46 43 40 38 37 36 35 34 32 30 28 26 25 24 23 22 22 22 21 20 19 17 15 14 12 12 12 14 15 16 18 18 19 19 19 19 20 20 21 21 21 20 21 21 22 22 21 19 19 19 20 21 21 22 22 23 23 25 27 31 36 41 45 49 53 58 62 65 67 69 70 71 72
45 43 41 39 36 35 34 32 31 28 26 25 24 23 21 20 20 20 19 18 17 15 14 13 12 12 13 14 16 18 18 19 20 21 20 20 20 20 21 22 22 22 21 20 20 21 22 22 20 19 18 18 19 19 19 18 18 18 19 21 25 29 33 37 41 46 51 55 59 63 66 68 69 70
41 40 38 37 35 34 32 30 28 26 24 23 21 20 19 19 19 18 17 15 14 12 12 11 12 14 15 17 20 22 23 24 24 23 21 20 20 19 19 20 21 22 22 21 20 20 20 20 20 19 18 18 17 16 15 15 15 15 16 18 20 23 27 31 35 39 43 47 51 54 58 61 65 65
39 38 37 35 34 32 30 28 26 23 22 21 19 18 17 17 17 17 15 13 12 11 11 12 13 15 17 19 21 23 24 26 26 25 24 23 22 21 20 20 20 22 22 21 20 20 18 17 18 18 17 16 15 14 14 15 15 15 16 17 19 20 22 25 29 32 36 39 42 45 47 50 54 57
37 36 36 34 33 30 28 26 24 22 20 19 18 17 16 16 16 15 14 12 11 11 12 13 14 15 17 19 21 24 24 24 24 23 23 23 22 21 22 23 22 22 22 21 20 19 18 16 15 16 16 15 15 15 16 16 16 16 16 17 17 17 18 20 22 25 29 32 34 35 38 38 39 44
36 35 34 33 31 29 26 24 22 20 18 17 16 16 15 15 15 14 13 12 11 12 14 14 14 15 17 20 22 24 24 23 22 22 22 22 21 22 24 25 24 22 21 21 19 18 17 15 13 13 14 15 16 17 17 17 17 16 15 14 14 14 14 14 16 18 21 25 26 27 30 31 29 31
35 34 32 31 29 26 24 22 20 18 17 16 16 15 15 15 15 14 13 13 13 14 15 15 14 16 18 20 21 22 22 22 21 21 21 21 22 24 25 25 23 21 20 20 18 17 16 15 14 14 15 15 16 17 17 17 17 16 13 12 12 12 10 10 12 13 13 15 17 19 21 24 24 23
34 32 30 28 26 24 22 20 19 17 16 16 16 16 14 14 15 15 14 13 14 15 16 15 15 16 19 20 20 20 20 20 21 21 21 22 23 24 25 25 22 21 19 18 17 16 16 16 16 16 17 17 18 19 18 19 18 17 14 13 11 11 10 9 10 9 8 9 12 14 15 18 20 22
32 30 28 26 24 22 20 19 18 17 16 16 17 16 15 14 15 15 14 14 15 17 17 17 17 18 19 20 21 20 20 20 20 21 22 22 23 25 25 25 23 21 18 16 14 13 14 15 17 17 18 18 18 20 20 19 19 17 16 14 13 13 13 11 8 7 8 10 11 12 15 19 22 24
31 28 26 24 22 20 19 18 17 17 17 17 17 17 15 14 15 15 15 15 16 18 19 19 18 18 19 20 21 21 20 19 19 20 21 23 24 25 26 25 23 21 18 16 14 13 13 13 15 17 19 19 19 19 19 19 18 17 16 16 16 16 16 15 11 9 9 10 11 11 14 19 23 25
29 27 24 23 21 20 19 18 18 18 18 18 18 18 17 15 15 15 14 15 16 18 19 19 19 19 19 20 21 21 21 19 19 19 21 23 25 25 25 24 23 21 19 17 16 15 15 15 15 16 18 19 19 20 20 20 20 18 17 18 20 20 19 17 15 13 12 13 13 14 16 20 24 26
28 26 23 22 20 20 19 19 19 19 20 20 19 19 18 17 16 15 14 14 14 15 16 17 18 18 19 20 21 22 21 21 21 21 21 22 24 25 25 25 24 23 21 19 18 18 18 19 18 18 18 18 18 19 20 21 20 19 20 22 23 23 22 20 18 16 16 16 17 19 21 22 22 24
27 25 23 21 20 19 19 19 20 20 21 21 20 20 20 19 18 17 16 14 14 14 15 15 16 17 18 19 20 21 21 22 22 22 22 23 24 25 25 24 24 24 23 21 21 20 20 21 21 21 20 20 19 19 20 21 21 21 22 22 23 24 23 22 20 19 19 20 22 23 23 22 21 21
27 25 23 21 20 20 19 20 20 21 21 22 21 21 21 21 20 19 19 17 16 16 15 15 15 16 16 17 18 19 20 21 21 22 23 24 25 25 25 24 24 24 23 23 22 22 22 22 22 22 22 22 20 20 20 22 23 23 22 21 22 23 24 23 22 21 22 24 24 24 23 22 22 22
27 25 24 22 21 21 21 21 21 21 21 22 22 22 22 23 23 22 22 20 19 18 17 16 16 16 16 16 16 17 18 20 20 22 23 24 25 25 25 25 24 24 23 23 23 24 23 23 23 22 22 22 21 21 22 24 25 25 24 23 23 24 25 25 24 23 22 23 23 23 23 24 25 24
26 25 24 24 23 22 22 22 22 22 22 22 22 22 23 24 24 24 24 23 22 21 19 18 17 17 16 16 15 16 16 18 19 21 22 23 24 25 26 25 24 23 23 23 24 23 22 21 19 18 19 20 21 21 22 24 26 27 26 25 24 24 24 24 23 22 22 23 23 25 26 26 26 24
26 25 24 24 23 23 23 23 23 23 23 24 24 24 24 25 25 26 26 25 24 23 22 21 20 19 18 16 15 14 14 15 16 18 19 21 23 26 26 25 23 22 22 22 23 22 20 17 14 12 14 18 20 21 22 25 28 28 27 26 25 25 26 26 25 25 24 24 25 27 27 27 26 25
Wind_Direction
287 286 285 283 281 280 280 279 279 278 276 274 273 272 273 274 274 273 272 272 272 273 274 275 274 273 271 271 270 270 271 272 273 274 274 274 273 271 269 267 263 259 255 255 257 256 253 251 252 253 255 254 253 253 255 255 254 253 252 251 248 244 241 241 241 239 234 229 223 218 214 213 211 210
286 286 285 284 282 281 280 279 278 276 275 273 273 272 272 272 272 272 273 274 274 274 274 273 271 269 267 266 267 268 268 268 268 270 271 273 273 273 273 272 270 265 261 259 259 259 256 253 253 253 253 253 254 253 252 252 253 253 252 252 250 247 244 243 243 241 238 235 231 227 221 218 216 215
286 286 285 285 284 282 280 279 278 276 274 273 272 271 271 270 270 271 271 272 274 274 274 273 270 267 265 265 266 267 268 268 268 268 268 269 270 271 270 271 271 270 268 265 264 263 260 257 256 256 253 251 252 254 254 253 252 252 252 251 251 249 247 245 244 242 239 237 236 234 230 225 221 220
287 287 287 286 285 283 281 279 277 276 275 274 273 272 271 270 269 269 269 270 271 272 272 273 271 267 263 263 264 265 267 268 268 268 267 268 269 269 268 268 268 268 268 267 267 266 264 261 259 259 257 253 251 251 254 255 253 252 251 250 250 249 248 247 245 244 242 240 239 238 236 232 229 227
287 287 287 287 286 284 282 279 277 275 274 274 273 273 272 271 270 269 269 269 269 270 270 272 273 270 265 263 262 263 263 264 265 266 266 266 267 268 268 268 268 267 266 266 265 266 266 264 262 260 260 258 254 252 253 254 253 252 251 250 248 248 248 248 248 247 245 244 242 240 237 235 235 233
288 288 288 289 288 286 284 281 279 276 274 274 273 273 273 272 271 270 269 269 269 269 269 271 273 271 268 267 266 265 264 264 264 264 264 264 265 265 266 266 266 266 266 266 265 264 264 264 263 262 261 260 258 256 254 254 253 252 251 250 248 247 246 246 248 248 248 246 244 242 240 237 236 236
289 288 289 289 289 288 285 283 281 279 277 276 275 274 274 273 272 270 269 268 268 268 269 270 271 270 269 270 270 269 268 267 266 265 264 264 264 265 265 266 266 266 265 265 265 264 263 261 261 261 261 260 259 258 256 255 253 252 251 250 249 247 245 245 245 247 248 248 247 244 242 240 237 236
287 287 287 287 287 286 285 283 282 281 280 278 277 276 276 276 274 271 269 268 268 268 269 270 270 269 270 272 271 270 269 268 268 268 267 266 266 266 267 267 267 267 266 266 265 265 264 262 260 259 258 258 258 258 257 255 253 252 251 250 249 247 246 244 244 244 246 247 248 247 244 242 240 237
287 287 287 286 285 284 283 282 281 281 280 279 278 277 278 277 276 274 271 269 268 267 267 268 269 270 272 273 272 270 269 268 268 269 269 268 267 267 267 267 267 267 266 266 265 264 264 263 261 259 257 256 257 257 256 255 254 252 251 251 249 248 246 245 244 244 244 244 245 246 246 244 242 240
289 289 288 287 285 284 283 282 281 281 280 279 278 278 277 276 275 274 273 271 269 267 266 267 269 271 272 273 273 272 271 270 270 270 269 269 269 269 268 267 266 265 266 265 264 263 262 262 261 259 258 256 256 255 255 254 253 252 251 250 249 248 246 245 245 244 244 244 244 244 245 245 244 243
291 289 287 286 285 284 283 283 282 282 282 281 281 280 279 278 277 275 273 272 270 268 267 268 270 272 273 274 275 275 275 274 273 273 272 272 271 271 271 269 267 265 264 264 264 263 262 261 260 259 258 256 255 255 254 254 253 252 251 250 249 248 247 246 245 245 245 244 243 243 244 244 245 245
292 291 289 289 288 287 287 287 287 287 287 286 286 284 283 282 281 279 278 276 274 272 272 272 273 275 276 277 277 277 277 276 276 275 275 274 273 273 272 271 269 267 265 264 263 262 262 261 260 259 258 256 255 254 253 254 253 252 251 250 250 249 248 246 245 245 246 245 244 242 242 243 244 244
294 293 293 292 291 291 291 290 290 289 289 288 288 287 286 285 283 282 281 279 278 277 276 276 276 276 276 276 276 276 276 276 275 275 274 273 273 272 272 270 268 267 266 265 264 262 261 260 259 259 258 257 256 255 253 253 253 252 252 251 250 249 248 247 246 245 245 245 245 243 241 241 242 243
295 294 293 292 291 290 290 289 289 289 288 287 286 286 285 285 283 282 280 279 278 278 277 276 276 275 274 273 273 273 273 273 273 273 273 272 271 270 270 269 268 266 265 265 264 263 262 260 259 258 258 257 257 256 255 253 252 252 251 251 250 249 249 248 247 246 245 244 244 244 242 241 241 241
296 295 294 294 294 293 293 293 292 291 290 289 289 288 286 285 283 281 280 279 278 277 276 275 275 273 273 272 272 272 272 272 272 272 272 271 271 270 269 268 267 266 264 263 263 262 262 260 259 258 257 257 257 256 256 255 253 252 251 250 250 249 249 248 248 247 245 244 243 243 243 242 241 240
298 298 298 298 298 297 296 296 295 294 293 292 292 290 289 287 286 284 283 282 281 280 278 277 276 274 274 273 273 272 272 272 272 271 271 271 271 270 268 266 266 265 264 262 261 261 260 259 258 258 257 257 256 256 256 255 254 252 251 250 249 249 248 248 248 247 246 245 244 243 243 242 241 240
302 301 301 301 300 299 299 298 297 296 295 294 293 291 290 289 287 286 286 285 283 282 281 280 279 278 278 277 275 274 274 273 272 271 271 271 270 269 268 267 266 265 264 263 261 260 259 258 258 258 257 256 256 255 255 255 254 253 252 250 249 248 248 247 247 247 246 245 244 243 242 242 242 241
305 305 304 304 303 303 302 302 301 300 298 296 294 293 291 290 289 288 287 286 284 282 281 281 280 280 279 279 278 277 276 275 274 273 273 272 270 270 269 269 268 266 265 264 262 261 260 259 258 257 257 256 255 255 254 254 253 253 252 251 250 249 248 247 247 246 246 245 244 244 242 241 241 241
308 307 307 307 307 306 306 305 303 302 300 298 297 296 295 294 293 292 290 289 288 286 284 282 281 280 280 279 279 279 278 277 276 276 275 274 273 272 272 271 269 268 266 265 263 262 262 261 259 257 257 256 255 254 253 253 252 251 251 251 250 250 249 247 247 246 246 245 244 244 243 242 241 241
309 309 309 308 307 306 306 304 303 301 300 299 298 297 297 296 296 295 294 293 292 290 288 286 284 283 282 280 280 280 280 280 278 277 275 274 275 275 274 272 270 268 268 267 265 263 263 262 261 259 257 256 255 254 253 252 251 250 250 249 249 249 249 248 247 246 246 245 245 244 243 243 242 241
309 309 308 307 306 305 304 302 301 300 298 298 298 297 298 297 297 296 295 294 293 291 289 288 287 286 285 284 283 283 282 282 281 280 278 276 276 275 273 271 270 269 268 268 266 265 264 263 262 259 257 256 255 254 253 252 251 250 250 249 248 248 248 248 247 246 246 245 245 244 243 243 242 242
308 308 308 307 306 305 304 302 301 300 299 298 298 298 298 298 297 296 295 294 293 292 291 290 290 289 289 288 287 286 285 285 285 284 283 282 279 275 272 270 270 269 268 268 268 267 265 264 263 261 259 257 255 254 254 253 252 251 250 249 248 248 247 247 247 246 246 245 244 244 243 243 242 242
309 309 308 308 307 306 304 302 301 301 300 299 299 298 298 298 297 296 295 294 293 292 292 291 291 290 289 288 288 287 287 287 287 287 287 287 283 278 274 273 272 271 271 270 269 268 265 264 262 261 260 257 255 253 252 252 251 250 250 250 249 248 247 247 247 247 246 245 244 244 244 243 243 242
310 310 310 310 308 307 305 304 303 302 302 301 300 300 299 298 297 296 295 294 293 293 293 293 292 291 290 290 290 290 290 291 292 292 293 292 290 286 282 280 279 277 276 276 274 270 266 264 261 259 257 256 254 252 250 250 249 248 248 248 248 248 248 247 247 246 246 246 245 244 243 243 243 243
312 313 313 312 310 309 307 306 305 305 304 303 302 301 300 298 297 296 295 295 295 296 296 295 295 295 295 296 297 297 297 298 299 300 302 302 301 298 295 292 289 288 287 286 281 275 270 266 263 260 257 255 254 252 250 249 248 247 247 247 247 248 248 247 247 247 247 247 246 245 244 243 243 243
314 314 313 313 311 310 309 308 307 306 305 305 303 301 300 298 297 296 296 297 297 298 299 299 300 302 304 305 306 308 309 310 310 311 313 313 312 309 305 301 297 294 294 293 288 282 277 273 270 267 264 261 258 256 253 251 250 249 249 248 248 249 249 248 248 248 248 248 248 247 246 244 243 243
313 313 313 313 311 310 309 308 307 307 306 304 302 300 299 298 297 298 299 300 302 303 303 303 305 309 313 317 321 324 326 327 327 327 326 325 324 321 317 312 305 298 293 289 286 282 279 278 276 273 269 266 263 261 259 256 253 251 250 250 249 249 249 248 248 248 248 248 248 249 248 246 245 243
311 312 312 311 310 309 308 308 307 306 305 303 301 299 298 298 298 299 301 304 305 305 304 306 309 315 322 329 332 333 332 331 330 328 326 322 320 319 318 315 311 306 298 291 284 278 276 275 273 268 266 266 265 265 265 263 260 257 254 253 252 251 250 249 248 248 247 247 247 248 248 248 247 246
310 311 311 310 310 308 307 307 307 305 303 300 298 297 297 298 300 301 304 306 306 305 305 309 315 319 323 327 326 324 322 322 321 320 318 316 314 314 313 310 308 306 303 298 290 280 274 271 270 266 265 266 267 267 267 268 269 268 264 260 258 256 254 252 250 249 249 248 248 247 248 248 248 248
310 310 310 310 310 309 308 308 306 304 300 297 295 296 298 300 303 305 307 306 304 303 307 314 317 316 318 322 320 317 316 317 318 318 318 318 317 317 315 313 310 306 303 301 296 287 275 269 268 267 266 267 269 269 271 274 277 279 276 270 265 261 258 255 252 251 250 249 248 248 247 247 248 248
311 310 310 309 309 309 309 308 306 302 298 295 295 297 300 304 307 308 307 304 302 303 307 311 313 315 319 322 321 318 318 320 322 325 326 325 324 323 321 318 313 309 305 300 296 290 281 270 265 263 262 263 263 265 274 284 288 289 288 285 278 270 264 259 255 252 251 250 250 249 248 247 247 247
312 310 310 310 310 310 310 308 304 299 296 295 297 300 304 308 309 308 305 301 300 301 302 305 311 319 323 322 318 315 314 316 320 324 327 327 326 325 325 321 315 310 306 301 296 292 286 276 266 259 256 256 259 266 277 286 289 291 293 296 291 282 273 265 259 255 253 252 251 250 249 248 247 246
313 312 311 311 311 311 309 306 302 298 296 297 300 302 305 308 309 305 302 298 296 295 296 302 311 317 318 314 311 312 314 316 317 320 322 322 321 320 320 320 315 309 304 299 295 292 288 280 268 260 254 251 256 266 274 278 281 283 288 294 296 290 282 274 265 258 254 252 251 250 248 246 246 245
314 313 312 312 312 310 308 304 300 297 296 296 297 299 302 308 309 303 296 292 288 287 291 299 307 310 310 310 312 317 319 319 317 317 319 319 317 316 316 316 313 308 303 298 292 289 284 275 264 257 251 247 253 264 271 277 282 282 281 288 298 298 292 283 273 265 259 255 253 251 247 241 240 242
315 314 314 313 312 309 305 301 297 294 292 292 293 295 301 307 308 300 291 286 282 282 286 294 301 306 308 312 316 321 322 319 317 317 318 318 316 316 317 315 311 308 305 300 293 285 278 270 261 255 251 250 255 262 266 273 281 281 274 279 296 305 304 299 293 286 275 263 255 251 247 241 236 240
317 316 315 314 311 306 301 297 293 291 291 290 290 292 298 304 305 299 290 284 282 283 286 293 302 307 310 314 319 323 323 321 318 317 316 316 318 320 321 319 315 310 308 305 297 287 276 268 261 255 252 253 257 260 264 272 279 276 266 265 280 294 296 297 304 303 288 265 249 239 237 238 237 241
319 318 316 313 309 304 298 294 291 290 290 289 287 287 292 300 302 298 290 284 284 285 288 292 300 306 312 317 322 326 326 323 319 316 315 318 322 324 324 322 318 313 310 308 304 295 285 273 264 257 253 254 259 263 268 274 275 268 259 255 263 277 281 278 282 287 276 263 252 243 241 245 248 250
322 320 317 313 308 303 297 293 291 290 289 287 283 281 285 294 300 297 291 286 284 286 288 291 296 304 313 320 323 325 327 327 322 318 317 318 320 323 325 325 321 315 310 309 306 302 296 286 275 267 262 261 263 265 267 270 269 263 259 258 262 272 279 277 269 267 267 264 265 268 262 255 251 251
324 321 318 314 309 303 298 292 288 287 286 283 279 276 277 285 292 294 291 288 287 288 291 292 294 299 307 315 321 324 328 332 331 327 322 320 320 322 323 324 322 317 311 307 303 300 296 292 286 281 276 272 268 264 262 263 265 263 262 264 266 271 278 277 270 266 268 268 269 275 275 266 258 254
325 323 319 315 309 303 297 291 286 284 283 281 277 272 271 276 282 286 288 290 291 294 297 297 296 297 301 310 321 327 331 334 335 333 330 328 327 326 323 321 321 319 315 309 303 298 293 289 286 285 283 277 270 261 255 255 257 258 259 263 267 271 275 275 269 264 267 272 275 279 283 282 275 266
327 324 320 315 309 303 296 290 285 281 280 279 276 271 267 269 273 278 281 285 290 294 299 302 303 305 307 312 319 325 330 333 335 336 336 335 333 331 327 323 321 320 318 314 307 300 294 289 285 282 277 272 265 255 248 246 248 251 254 259 265 268 271 272 271 267 267 271 276 280 284 287 287 281
329 326 322 317 312 305 298 292 287 282 279 277 275 270 265 264 266 270 274 278 283 287 293 301 306 311 314 315 316 320 327 332 335 337 339 339 338 336 333 329 326 324 322 317 312 305 298 292 286 278 271 265 258 249 241 239 241 244 246 251 256 259 262 265 269 270 271 274 277 280 284 289 293 292
332 330 326 320 316 310 303 296 290 285 281 278 275 272 267 264 263 266 269 273 277 281 286 292 298 304 309 312 313 316 324 331 337 340 341 342 341 339 337 334 332 330 327 322 316 310 303 295 287 277 264 255 247 240 234 234 237 242 245 248 251 255 261 265 269 271 274 277 280 283 288 294 298 295
337 335 330 325 321 316 310 304 297 292 287 283 279 275 271 267 265 265 267 270 274 277 281 285 289 294 298 304 309 316 323 331 339 342 342 342 341 340 340 339 338 336 333 327 320 315 309 301 290 274 255 241 235 231 229 232 237 241 245 249 252 257 262 266 268 271 275 277 280 283 288 293 298 295
343 341 337 332 328 323 318 313 307 300 295 290 286 282 278 274 270 268 268 269 272 275 278 281 285 288 290 296 305 314 321 330 338 341 341 340 340 340 342 344 344 342 338 333 329 327 324 316 298 271 245 233 229 227 227 233 238 242 246 249 253 256 261 263 266 272 277 278 280 283 286 290 296 296
Height
10931 10929 10928 10927 10926 10924 10923 10921 10920 10918 10916 10915 10914 10913 10912 10910 10909 10908 10907 10906 10907 10907 10906 10906 10905 10905 10905 10905 10904 10904 10904 10904 10905 10904 10904 10904 10905 10906 10907 10908 10910 10913 10915 10914 10914 10916 10916 10916 10917 10916 10917 10919 10920 10921 10922 10924 10925 10925 10926 10928 10930 10932 10934 10935 10935 10935 10936 10936 10937 10938 10938 10939 10940 10942
10925 10924 10923 10921 10920 10919 10918 10916 10915 10914 10912 10911 10910 10909 10908 10906 10905 10903 10902 10900 10900 10901 10901 10901 10901 10900 10900 10899 10898 10898 10899 10899 10900 10900 10899 10898 10899 10900 10900 10901 10903 10905 10907 10908 10908 10908 10909 10910 10911 10910 10911 10912 10913 10914 10916 10918 10920 10920 10922 10923 10925 10926 10929 10930 10931 10932 10933 10934 10934 10935 10935 10936 10937 10938
10920 10918 10917 10916 10915 10914 10912 10911 10910 10909 10907 10906 10905 10903 10902 10902 10901 10899 10898 10895 10893 10894 10895 10894 10895 10895 10895 10894 10893 10893 10893 10893 10894 10895 10894 10893 10893 10894 10895 10895 10896 10897 10898 10900 10900 10901 10902 10903 10904 10903 10904 10905 10906 10907 10909 10912 10914 10915 10917 10918 10919 10920 10922 10924 10926 10927 10928 10930 10931 10932 10932 10933 10934 10935
10915 10913 10912 10911 10910 10909 10907 10905 10904 10903 10901 10900 10899 10898 10896 10896 10895 10894 10893 10890 10887 10887 10888 10888 10888 10888 10889 10888 10887 10886 10886 10886 10886 10887 10887 10886 10887 10888 10888 10889 10889 10889 10890 10892 10893 10893 10894 10895 10895 10895 10896 10898 10899 10900 10902 10904 10907 10908 10910 10911 10913 10914 10915 10917 10919 10921 10923 10925 10926 10928 10929 10929 10930 10931
10910 10908 10906 10905 10904 10903 10901 10900 10898 10897 10895 10894 10892 10891 10890 10889 10889 10887 10886 10884 10882 10880 10880 10881 10880 10880 10881 10881 10879 10879 10878 10878 10878 10878 10877 10877 10878 10879 10880 10881 10881 10881 10882 10883 10885 10885 10886 10886 10886 10887 10888 10889 10891 10893 10894 10896 10898 10900 10901 10903 10906 10908 10910 10910 10912 10914 10916 10919 10921 10923 10924 10925 10926 10927
10904 10902 10900 10899 10897 10895 10894 10893 10891 10890 10888 10887 10885 10884 10883 10882 10881 10880 10879 10878 10876 10873 10872 10873 10872 10872 10873 10873 10871 10871 10871 10870 10870 10870 10869 10868 10869 10869 10870 10871 10871 10871 10872 10874 10875 10876 10877 10877 10878 10880 10881 10881 10882 10883 10884 10886 10888 10891 10893 10895 10897 10900 10903 10904 10905 10907 10909 10911 10914 10916 10918 10920 10922 10923
10898 10896 10894 10892 10890 10887 10886 10884 10883 10882 10880 10878 10877 10875 10875 10874 10873 10872 10871 10870 10869 10866 10864 10864 10864 10864 10864 10864 10863 10863 10863 10862 10861 10861 10861 10860 10860 10859 10860 10860 10861 10861 10862 10864 10865 10866 10867 10867 10869 10871 10872 10872 10873 10874 10874 10876 10878 10881 10884 10886 10888 10891 10894 10897 10899 10900 10902 10904 10906 10909 10911 10913 10915 10917
10891 10889 10887 10885 10883 10880 10878 10876 10875 10874 10872 10870 10869 10867 10866 10865 10863 10862 10861 10861 10861 10859 10856 10854 10855 10856 10855 10855 10855 10854 10854 10853 10852 10852 10852 10851 10851 10850 10850 10850 10850 10850 10851 10853 10855 10856 10856 10857 10859 10860 10862 10863 10864 10864 10865 10866 10868 10870 10873 10877 10879 10882 10884 10887 10890 10893 10895 10896 10898 10900 10903 10905 10908 10910
10884 10881 10879 10877 10875 10873 10871 10869 10867 10865 10863 10861 10860 10859 10857 10856 10854 10853 10852 10852 10852 10851 10848 10845 10844 10845 10845 10845 10845 10844 10844 10844 10844 10843 10841 10840 10841 10841 10841 10840 10839 10839 10839 10841 10844 10846 10846 10847 10847 10849 10851 10853 10854 10854 10855 10856 10858 10860 10862 10865 10868 10871 10874 10877 10880 10883 10886 10888 10890 10892 10894 10897 10899 10902
10876 10874 10871 10869 10867 10865 10863 10861 10858 10856 10854 10852 10851 10849 10848 10847 10845 10844 10842 10842 10842 10842 10841 10838 10835 10833 10833 10833 10833 10832 10832 10833 10833 10832 10831 10830 10830 10829 10829 10829 10829 10829 10828 10829 10831 10834 10836 10836 10836 10838 10840 10842 10843 10843 10844 10845 10847 10849 10851 10853 10856 10860 10864 10867 10869 10872 10875 10879 10882 10884 10886 10888 10891 10894
10868 10866 10863 10861 10859 10856 10854 10852 10849 10847 10845 10843 10841 10839 10837 10836 10835 10834 10832 10832 10832 10832 10831 10829 10825 10823 10821 10820 10820 10818 10817 10819 10821 10820 10819 10819 10818 10817 10817 10815 10815 10816 10817 10817 10818 10821 10823 10825 10826 10827 10828 10830 10831 10832 10832 10834 10836 10838 10840 10842 10844 10847 10851 10856 10858 10861 10863 10867 10871 10875 10878 10880 10882 10885
10859 10857 10854 10852 10849 10846 10844 10841 10839 10837 10834 10832 10829 10827 10826 10824 10823 10822 10821 10820 10819 10818 10818 10817 10815 10813 10811 10808 10806 10804 10803 10804 10805 10806 10807 10807 10805 10804 10804 10802 10802 10802 10804 10805 10806 10808 10810 10812 10813 10815 10816 10817 10818 10820 10821 10822 10824 10826 10828 10830 10833 10835 10838 10842 10846 10849 10852 10855 10859 10864 10868 10871 10874 10876
10850 10847 10844 10841 10839 10836 10833 10831 10828 10826 10824 10821 10818 10815 10813 10812 10811 10810 10808 10807 10805 10804 10804 10804 10802 10801 10799 10795 10793 10791 10789 10789 10789 10790 10791 10793 10791 10790 10790 10789 10789 10790 10790 10791 10792 10794 10796 10798 10800 10802 10803 10804 10805 10807 10809 10811 10812 10813 10816 10818 10821 10823 10825 10828 10832 10837 10841 10844 10848 10852 10857 10861 10864 10867
10840 10838 10835 10832 10829 10826 10823 10820 10818 10815 10812 10809 10806 10803 10801 10799 10798 10796 10794 10793 10792 10792 10791 10790 10789 10787 10785 10782 10780 10778 10776 10775 10775 10774 10774 10775 10776 10776 10777 10775 10774 10776 10778 10778 10778 10779 10780 10783 10786 10788 10790 10791 10791 10793 10795 10798 10800 10801 10803 10805 10808 10810 10813 10815 10819 10823 10828 10833 10837 10840 10845 10849 10853 10857
10831 10828 10824 10821 10818 10815 10811 10808 10805 10802 10799 10795 10793 10791 10788 10786 10784 10783 10781 10780 10779 10778 10777 10776 10774 10772 10770 10768 10766 10765 10763 10762 10761 10760 10758 10758 10759 10761 10763 10763 10759 10759 10764 10766 10766 10765 10765 10768 10772 10774 10775 10777 10779 10780 10781 10783 10786 10789 10790 10792 10795 10797 10800 10803 10805 10809 10814 10820 10824 10829 10832 10836 10841 10845
10821 10818 10814 10811 10807 10803 10799 10796 10793 10789 10785 10782 10779 10777 10774 10772 10770 10769 10768 10767 10766 10764 10763 10761 10759 10757 10756 10755 10753 10751 10750 10750 10749 10746 10744 10744 10745 10745 10747 10748 10746 10744 10748 10752 10753 10752 10751 10754 10757 10760 10762 10764 10765 10767 10768 10769 10772 10775 10777 10779 10781 10784 10787 10790 10793 10797 10800 10805 10811 10816 10820 10824 10828 10833
10811 10807 10804 10800 10796 10792 10788 10784 10781 10777 10774 10770 10767 10765 10762 10760 10758 10757 10756 10755 10754 10751 10750 10748 10745 10743 10744 10742 10739 10738 10738 10738 10736 10735 10733 10732 10732 10731 10731 10733 10734 10732 10733 10736 10739 10739 10738 10740 10744 10747 10749 10750 10752 10754 10756 10757 10759 10762 10764 10767 10768 10771 10775 10778 10781 10784 10787 10791 10796 10802 10807 10812 10816 10820
10799 10796 10792 10788 10784 10780 10776 10772 10769 10766 10762 10759 10756 10754 10751 10749 10747 10747 10746 10745 10744 10742 10740 10739 10736 10733 10733 10731 10727 10726 10727 10726 10724 10723 10723 10721 10720 10720 10720 10722 10722 10721 10720 10722 10726 10727 10725 10727 10733 10736 10735 10736 10739 10741 10744 10746 10748 10750 10751 10753 10755 10758 10762 10765 10768 10771 10775 10778 10783 10788 10793 10799 10804 10809
10788 10784 10781 10777 10772 10768 10764 10761 10757 10754 10750 10747 10745 10743 10741 10739 10737 10736 10735 10734 10733 10732 10731 10729 10727 10725 10724 10722 10718 10716 10716 10716 10715 10714 10712 10710 10709 10710 10711 10711 10710 10708 10708 10710 10715 10716 10714 10715 10722 10724 10723 10725 10728 10729 10731 10733 10735 10737 10739 10741 10744 10746 10749 10752 10756 10759 10762 10766 10770 10775 10780 10785 10791 10796
10777 10774 10771 10767 10762 10759 10755 10751 10748 10745 10741 10738 10735 10733 10732 10730 10728 10727 10726 10724 10723 10722 10720 10719 10717 10716 10715 10713 10711 10708 10706 10706 10705 10705 10703 10700 10700 10702 10701 10699 10697 10697 10697 10699 10704 10706 10704 10705 10710 10712 10712 10714 10715 10716 10717 10719 10722 10725 10728 10730 10733 10735 10737 10740 10744 10747 10751 10754 10758 10761 10766 10771 10777 10783
10768 10765 10763 10759 10755 10751 10748 10744 10741 10738 10734 10731 10728 10725 10724 10723 10721 10719 10718 10717 10715 10714 10712 10710 10709 10707 10706 10704 10703 10700 10698 10696 10694 10694 10693 10691 10692 10693 10690 10687 10687 10687 10687 10688 10692 10696 10695 10695 10698 10700 10701 10702 10704 10704 10706 10708 10711 10714 10716 10718 10721 10723 10725 10728 10731 10734 10738 10741 10744 10748 10753 10758 10763 10770
10760 10758 10756 10752 10748 10745 10741 10737 10734 10731 10728 10725 10722 10719 10718 10717 10715 10713 10711 10710 10708 10707 10705 10703 10701 10700 10698 10696 10694 10693 10691 10688 10686 10684 10682 10683 10684 10683 10680 10678 10678 10677 10677 10679 10682 10686 10685 10685 10686 10688 10689 10692 10693 10694 10696 10698 10701 10703 10705 10706 10709 10711 10714 10716 10719 10722 10725 10728 10732 10736 10740 10745 10751 10757
10753 10751 10749 10745 10741 10738 10734 10731 10727 10724 10721 10719 10716 10714 10712 10711 10709 10707 10705 10703 10702 10700 10699 10697 10696 10694 10692 10690 10688 10686 10684 10682 10680 10677 10675 10675 10675 10674 10672 10671 10670 10669 10669 10671 10674 10676 10675 10675 10676 10678 10679 10681 10682 10684 10686 10688 10690 10692 10694 10696 10697 10700 10703 10705 10708 10711 10714 10717 10721 10724 10728 10733 10739 10745
10745 10743 10741 10737 10734 10730 10727 10724 10721 10718 10716 10713 10711 10709 10707 10705 10703 10702 10700 10698 10696 10695 10694 10692 10690 10689 10686 10684 10682 10681 10679 10677 10674 10672 10670 10669 10668 10667 10666 10665 10664 10662 10662 10665 10667 10667 10666 10667 10668 10669 10670 10671 10672 10674 10676 10677 10679 10681 10683 10685 10687 10689 10692 10695 10698 10700 10703 10705 10709 10712 10717 10722 10727 10733
10737 10735 10733 10730 10727 10724 10720 10717 10715 10712 10710 10708 10706 10704 10702 10700 10698 10697 10695 10693 10692 10690 10689 10688 10686 10684 10682 10680 10678 10676 10674 10672 10670 10667 10666 10664 10663 10663 10662 10661 10659 10658 10658 10660 10660 10660 10660 10660 10660 10661 10662 10663 10664 10665 10666 10668 10669 10671 10673 10676 10678 10680 10682 10685 10688 10690 10692 10695 10697 10701 10706 10711 10716 10721
10730 10728 10726 10724 10721 10718 10715 10712 10709 10707 10705 10703 10701 10699 10697 10695 10694 10692 10691 10689 10688 10687 10685 10683 10681 10679 10678 10676 10674 10673 10671 10669 10667 10665 10663 10661 10660 10659 10658 10657 10656 10655 10654 10655 10655 10655 10655 10654 10655 10655 10656 10656 10657 10657 10658 10660 10661 10663 10666 10669 10670 10672 10674 10677 10679 10682 10684 10686 10687 10691 10695 10700 10704 10708
10723 10722 10720 10718 10716 10712 10710 10707 10705 10702 10700 10698 10696 10695 10693 10692 10690 10688 10687 10686 10684 10683 10681 10679 10678 10676 10675 10673 10672 10670 10668 10667 10665 10663 10661 10659 10658 10657 10656 10654 10653 10652 10651 10651 10651 10651 10651 10651 10651 10651 10650 10651 10651 10650 10651 10653 10655 10657 10660 10661 10662 10664 10665 10667 10670 10672 10674 10676 10678 10680 10684 10688 10692 10697
10718 10716 10715 10714 10711 10708 10705 10703 10700 10698 10696 10694 10692 10691 10690 10688 10687 10685 10684 10682 10680 10679 10678 10676 10675 10673 10672 10671 10669 10668 10666 10664 10662 10661 10659 10657 10656 10654 10653 10652 10650 10649 10647 10647 10646 10647 10647 10647 10647 10647 10647 10646 10646 10646 10647 10647 10649 10651 10653 10654 10655 10656 10657 10659 10661 10662 10664 10666 10668 10671 10674 10677 10682 10686
10715 10712 10710 10709 10707 10704 10701 10699 10696 10694 10692 10691 10689 10688 10686 10685 10684 10682 10680 10679 10677 10676 10675 10674 10672 10671 10670 10668 10667 10665 10664 10662 10660 10658 10656 10655 10653 10651 10650 10649 10647 10646 10644 10643 10642 10642 10642 10642 10643 10643 10643 10643 10643 10643 10643 10644 10644 10646 10648 10648 10649 10649 10649 10651 10652 10653 10654 10656 10659 10661 10664 10667 10671 10675
10711 10708 10706 10704 10702 10700 10697 10695 10692 10690 10689 10687 10686 10684 10683 10682 10680 10679 10677 10676 10675 10674 10673 10672 10670 10669 10668 10666 10665 10663 10661 10659 10657 10655 10654 10652 10650 10648 10647 10645 10644 10643 10641 10640 10639 10638 10637 10638 10638 10639 10640 10640 10640 10640 10640 10641 10642 10642 10643 10643 10643 10642 10643 10643 10644 10644 10645 10647 10649 10652 10655 10658 10661 10665
10707 10704 10702 10699 10697 10695 10692 10690 10688 10687 10685 10684 10683 10681 10680 10679 10677 10676 10675 10674 10673 10672 10671 10670 10669 10667 10666 10664 10662 10660 10658 10656 10654 10652 10650 10649 10647 10645 10644 10642 10641 10639 10638 10637 10636 10635 10634 10634 10634 10635 10636 10636 10636 10637 10637 10638 10639 10639 10638 10638 10637 10637 10637 10636 10636 10636 10637 10639 10640 10643 10646 10649 10653 10657
10703 10700 10697 10695 10692 10690 10688 10686 10684 10683 10682 10680 10679 10678 10677 10676 10675 10674 10673 10672 10671 10670 10669 10668 10667 10665 10663 10661 10659 10657 10655 10653 10651 10649 10647 10645 10644 10642 10641 10640 10638 10636 10634 10633 10632 10631 10631 10631 10631 10631 10632 10632 10633 10633 10634 10635 10635 10635 10635 10634 10633 10632 10631 10631 10630 10631 10631 10632 10634 10636 10638 10642 10646 10650
10699 10695 10692 10690 10687 10685 10683 10681 10680 10679 10678 10677 10676 10675 10675 10674 10673 10672 10671 10670 10669 10668 10667 10666 10665 10663 10662 10659 10657 10655 10653 10651 10649 10647 10645 10643 10642 10640 10638 10637 10635 10634 10632 10630 10629 10628 10628 10627 10627 10627 10628 10629 10629 10629 10630 10630 10631 10631 10631 10630 10629 10628 10627 10626 10626 10626 10626 10627 10629 10630 10632 10636 10639 10641
10694 10691 10688 10685 10683 10681 10679 10678 10677 10676 10675 10674 10674 10673 10672 10671 10670 10670 10669 10668 10667 10666 10666 10665 10663 10661 10660 10657 10655 10653 10650 10648 10646 10645 10643 10641 10640 10638 10636 10634 10633 10631 10629 10627 10626 10625 10625 10624 10624 10624 10624 10625 10625 10626 10626 10626 10627 10627 10627 10626 10626 10625 10623 10622 10622 10622 10622 10623 10625 10626 10628 10630 10632 10634
10690 10687 10684 10681 10679 10677 10676 10675 10674 10673 10672 10672 10671 10671 10670 10669 10668 10667 10666 10666 10665 10664 10664 10663 10661 10659 10658 10656 10654 10651 10648 10646 10644 10642 10641 10639 10637 10635 10633 10631 10630 10628 10626 10624 10623 10622 10622 10621 10621 10621 10621 10621 10622 10622 10622 10623 10623 10623 10623 10623 10623 10622 10620 10620 10619 10619 10620 10620 10621 10622 10624 10625 10626 10628
10686 10683 10680 10678 10676 10674 10673 10672 10671 10671 10670 10669 10669 10668 10667 10667 10666 10665 10664 10664 10663 10662 10661 10660 10659 10657 10656 10654 10652 10650 10647 10644 10642 10640 10638 10636 10635 10633 10630 10628 10627 10625 10623 10622 10620 10619 10619 10618 10618 10618 10618 10618 10619 10619 10619 10619 10620 10620 10619 10619 10620 10619 10618 10618 10618 10618 10618 10618 10618 10619 10620 10620 10621 10622
10682 10679 10677 10675 10673 10671 10670 10670 10669 10668 10667 10667 10666 10666 10665 10664 10663 10662 10662 10661 10661 10660 10659 10658 10657 10655 10653 10651 10649 10647 10645 10642 10640 10638 10636 10634 10632 10630 10628 10625 10623 10622 10621 10619 10618 10617 10616 10615 10615 10615 10615 10615 10615 10616 10616 10616 10616 10616 10616 10616 10617 10617 10617 10617 10617 10617 10616 10616 10616 10617 10617 10617 10617 10618
10679 10676 10674 10672 10670 10669 10668 10667 10666 10666 10665 10664 10664 10663 10663 10662 10661 10660 10659 10659 10658 10657 10656 10655 10654 10653 10651 10649 10647 10645 10643 10641 10638 10636 10633 10631 10629 10627 10625 10623 10621 10619 10618 10617 10616 10614 10614 10613 10612 10612 10611 10611 10612 10612 10612 10612 10612 10612 10612 10612 10613 10614 10615 10615 10615 10615 10615 10615 10615 10615 10615 10615 10614 10614
10676 10673 10671 10669 10668 10666 10665 10664 10664 10663 10663 10662 10661 10661 10660 10660 10659 10658 10657 10656 10656 10655 10654 10652 10651 10650 10649 10647 10645 10643 10641 10638 10636 10634 10631 10629 10627 10625 10623 10621 10619 10617 10616 10614 10613 10612 10611 10610 10609 10609 10608 10608 10608 10608 10609 10609 10609 10609 10609 10609 10610 10611 10612 10613 10613 10613 10613 10613 10614 10614 10613 10612 10612 10612
10674 10671 10669 10667 10665 10664 10663 10662 10661 10661 10660 10659 10659 10658 10658 10657 10657 10656 10655 10654 10653 10652 10651 10650 10649 10647 10646 10645 10643 10641 10638 10636 10634 10631 10629 10627 10625 10622 10620 10618 10617 10615 10613 10612 10610 10608 10607 10606 10606 10606 10605 10605 10605 10605 10605 10606 10606 10606 10606 10606 10607 10608 10609 10610 10610 10610 10610 10611 10612 10612 10610 10609 10609 10610
10671 10669 10667 10665 10663 10662 10660 10659 10659 10658 10657 10657 10656 10655 10655 10654 10654 10653 10652 10651 10650 10650 10648 10647 10646 10644 10643 10642 10640 10638 10636 10634 10632 10630 10627 10625 10623 10620 10618 10616 10614 10612 10610 10608 10607 10605 10604 10603 10602 10601 10601 10601 10601 10602 10602 10603 10603 10603 10603 10604 10604 10605 10605 10606 10606 10606 10607 10608 10608 10608 10608 10607 10607 10607
10670 10667 10665 10663 10661 10660 10658 10657 10656 10655 10654 10653 10653 10652 10651 10651 10651 10650 10649 10649 10648 10647 10646 10644 10643 10642 10640 10639 10638 10636 10634 10632 10630 10628 10626 10623 10621 10618 10616 10614 10611 10609 10607 10605 10603 10601 10599 10598 10597 10596 10596 10596 10597 10598 10599 10599 10599 10599 10600 10601 10601 10601 10601 10602 10603 10603 10604 10604 10604 10604 10604 10604 10604 10604
10668 10665 10663 10661 10659 10657 10656 10654 10653 10652 10651 10650 10649 10648 10648 10647 10647 10647 10646 10645 10644 10643 10642 10641 10640 10639 10638 10637 10636 10634 10633 10631 10629 10626 10624 10621 10619 10617 10614 10612 10609 10606 10604 10601 10599 10597 10594 10593 10591 10591 10590 10591 10592 10594 10595 10596 10596 10596 10596 10597 10597 10597 10598 10599 10600 10600 10600 10601 10601 10600 10600 10601 10600 10600
10667 10664 10661 10659 10657 10655 10653 10652 10650 10649 10648 10647 10646 10645 10644 10643 10643 10642 10642 10642 10641 10640 10639 10638 10637 10637 10636 10635 10633 10632 10631 10629 10627 10624 10622 10620 10618 10615 10613 10610 10607 10604 10601 10598 10595 10592 10590 10587 10586 10585 10585 10586 10588 10590 10591 10592 10592 10592 10593 10594 10594 10594 10594 10595 10596 10596 10597 10597 10598 10598 10597 10597 10596 10596
10665 10662 10660 10657 10655 10653 10651 10649 10648 10646 10645 10643 10642 10641 10640 10639 10639 10638 10638 10637 10637 10636 10635 10635 10634 10633 10633 10632 10631 10630 10628 10627 10625 10623 10621 10619 10617 10614 10612 10609 10606 10603 10600 10596 10592 10589 10585 10583 10581 10581 10582 10583 10584 10586 10588 10588 10588 10589 10590 10591 10591 10591 10591 10591 10593 10594 10594 10594 10594 10594 10594 10594 10593 10592